This is the latest recevied weather packets stored in our database for station/object IV3CGM-13. If no packets are shown the sender has not sent any weather packets the latest 10 day(s).
| Time | Temp. | Humidity | Pressure | Rain* | Wind** | Luminosity | Snow |
|---|---|---|---|---|---|---|---|
| 1777601990 | 6.67° C | 61% | 1026.4 hPa | 0 mm | - | 0 W/m² | - |
| 1777601289 | 6.67° C | 61% | 1026.5 hPa | 0 mm | - | 0 W/m² | - |
| 1777600602 | 6.67° C | 61% | 1026.7 hPa | 0 mm | - | 0 W/m² | - |
| 1777599914 | 6.67° C | 60% | 1026.7 hPa | 0 mm | - | 0 W/m² | - |
| 1777599227 | 6.67° C | 62% | 1026.7 hPa | 0 mm | - | 0 W/m² | - |
| 1777598490 | 6.67° C | 58% | 1026.7 hPa | 0 mm | - | 0 W/m² | - |
| 1777597789 | 6.67° C | 60% | 1026.7 hPa | 0 mm | - | 0 W/m² | - |
| 1777597102 | 6.67° C | 62% | 1026.6 hPa | 0 mm | - | 0 W/m² | - |
| 1777596414 | 6.67° C | 61% | 1026.6 hPa | 0 mm | - | 0 W/m² | - |
| 1777595726 | 6.67° C | 65% | 1026.5 hPa | 0 mm | - | 0 W/m² | - |
| 1777594989 | 7.22° C | 61% | 1026.6 hPa | 0 mm | - | 0 W/m² | - |
| 1777594288 | 7.22° C | 62% | 1026.7 hPa | 0 mm | - | 0 W/m² | - |
| 1777593601 | 7.22° C | 63% | 1026.7 hPa | 0 mm | - | 0 W/m² | - |
| 1777592913 | 7.22° C | 66% | 1026.8 hPa | 0 mm | - | 0 W/m² | - |
| 1777592226 | 7.78° C | 61% | 1026.8 hPa | 0 mm | - | 0 W/m² | - |
| 1777591489 | 8.33° C | 59% | 1026.9 hPa | 0 mm | - | 0 W/m² | - |
| 1777590788 | 8.33° C | 52% | 1026.9 hPa | 0 mm | - | 0 W/m² | - |
| 1777590101 | 8.33° C | 58% | 1026.9 hPa | 0 mm | - | 0 W/m² | - |
| 1777589412 | 8.89° C | 52% | 1027 hPa | 0 mm | - | 0 W/m² | - |
| 1777588725 | 8.89° C | 59% | 1026.9 hPa | 0 mm | - | 0 W/m² | - |
| 1777587988 | 8.89° C | 61% | 1026.8 hPa | 0 mm | - | 0 W/m² | - |
| 1777587287 | 8.89° C | 63% | 1026.7 hPa | 0 mm | - | 0 W/m² | - |
| 1777586600 | 9.44° C | 54% | 1026.6 hPa | 0 mm | - | 0 W/m² | - |
| 1777585912 | 8.89° C | 56% | 1026.5 hPa | 0 mm | - | 0 W/m² | - |
| 1777585225 | 9.44° C | 54% | 1026.3 hPa | 0 mm | - | 0 W/m² | - |
* Rain latest hour (hover to see other rain measurements)
** Current wind speed in m/s (hover to see current wind gust speed)